[[{"header":{"parameterUnit":"m.s-1","parameterCategory":1,"la1":30.2991,"la2":30.254,"lo1":-89.0895,"lo2":-89.0444,"dy":0.0017,"dx":0.0017,"nx":28,"ny":28,"refTime":"2024-08-07T09:00:00:Z","depth":0,"parameterNumber":2,"parameterNumberName":"U-component_of_WINDS"},"data":[0,0,0,0,0,0,0,0,0,0,0,0,0,0,0,0,0,0,0,0,0,0,0,0,0,0,0,0,0,0,0,0,0,0,0,0,0,0,0,0,0,0,0,0,0,0,0,0,0,0,0,0,0,0,0,0,0,0,3.5574,3.5575,0,3.5669,3.567,3.5671,3.5596,3.5593,3.559,3.5587,3.5688,3.5693,3.5699,0,0,0,0,0,0,0,0,0,0,0,0,0,3.5333,3.5338,3.5574,3.5575,3.5577,3.5669,3.567,3.5671,3.5597,3.5593,3.5589,3.5585,3.5686,3.5693,3.57,0,0,0,0,0,0,0,0,0,0,0,0,0,3.5434,3.534,3.5574,3.555,3.5549,3.5669,3.567,3.5672,3.5597,3.5593,3.5588,3.5583,3.5684,3.5692,3.5701,3.585,0,0,3.5727,3.573,0,0,0,0,0,0,0,0,3.5428,3.5443,3.5553,3.5552,3.5551,3.5616,3.5622,3.5732,3.5599,3.5579,3.5586,3.5581,3.5668,3.5678,3.5706,3.5855,3.5859,3.5727,3.5733,3.5736,3.5739,0,0,0,0,0,0,0,3.5422,3.5439,3.5612,3.5554,3.5553,3.5536,3.5545,3.5643,3.565,3.5581,3.5575,3.5587,3.5667,3.5698,3.5708,3.586,3.5727,3.5735,3.574,3.5743,3.6138,3.6143,0,0,0,0,0,0,3.5416,3.5433,3.5609,3.5615,3.5476,3.5545,3.5555,3.56,3.5648,3.5651,3.5591,3.5583,3.5686,3.5698,3.5711,3.589,3.5736,3.5744,3.5749,3.6132,3.6139,3.6144,0,0,0,0,0,0,3.5411,3.5433,3.5605,3.5523,3.5543,3.5554,3.5605,3.5604,3.5635,3.5656,3.5658,3.5622,3.5683,3.5699,3.5816,3.5892,3.5748,3.5756,3.6126,3.6134,3.6142,3.6248,0,0,0,0,0,0,3.5405,3.5431,3.5487,3.5524,3.5548,3.5707,3.561,3.561,3.565,3.564,3.5685,3.5688,3.568,3.5804,3.5824,3.5901,3.5763,3.6119,3.613,3.6139,3.6238,3.6259,3.6277,0,0,0,0,0,3.5396,3.5514,3.549,3.5512,3.5618,3.5712,3.5725,3.5712,3.5656,3.5713,3.5727,3.5687,3.5881,3.5816,3.5839,3.592,3.6114,3.6127,3.6138,3.6229,3.6255,3.6276,0,0,0,0,0,0,3.5487,3.5518,3.5492,3.5625,3.5666,3.5699,3.577,3.5739,3.5798,3.5787,3.577,3.578,3.5903,3.5923,3.5851,3.6067,3.5989,3.6006,3.605,3.6074,3.6093,3.6086,3.577,0,0,0,0,0,3.5522,3.5594,3.5619,3.5734,3.5755,3.5759,3.58,3.5786,3.5828,3.5846,3.5868,3.5912,3.5982,3.6029,3.6096,3.624,3.625,3.6307,3.6327,3.6342,3.6358,3.6437,3.6463,3.6184,3.6184,3.6184,0,0,3.5596,3.5622,3.5669,3.5752,3.5782,3.5859,3.5774,3.5859,3.5916,3.5859,3.597,3.5988,3.6036,3.6168,3.6227,3.6188,3.6437,3.6358,3.637,3.6377,3.6452,3.6478,3.6502,3.6192,3.6191,3.6189,0,0,3.577,3.5796,3.5895,3.5927,3.5973,3.5975,3.5999,3.6036,3.6046,3.6157,3.6116,3.6184,3.6306,3.6342,3.6377,3.6565,3.6531,3.6587,3.6689,3.6766,3.6788,3.6808,3.6876,3.69,3.6602,3.6603,3.6603,0,3.5856,3.5968,3.595,3.6038,3.6077,3.6027,3.6128,3.616,3.6227,3.6255,3.621,3.6363,3.6391,3.6531,3.6577,3.6606,3.6634,3.6582,3.6786,3.6806,3.6824,3.6888,3.6914,3.6609,3.6608,3.6608,3.6607,0,3.6073,3.6152,3.6227,3.629,3.6337,3.6432,3.6429,3.6479,3.6462,3.6469,3.6584,3.6616,3.6689,3.6721,3.6705,3.6859,3.6834,3.6788,3.6709,3.6857,3.6918,3.6942,3.6619,3.6616,3.6614,3.6613,0,0,3.6307,3.6359,3.6387,3.6415,3.6463,3.6524,3.6617,3.6686,3.673,3.6778,3.6856,3.696,3.6919,3.6958,3.6946,3.7014,3.7162,3.696,3.6961,3.6997,3.7335,3.7369,3.7398,3.7139,3.7144,3.7148,3.7331,0,3.6483,3.6642,3.6629,3.6781,3.6854,3.6808,3.6889,3.6928,3.6938,3.7002,3.7013,3.7088,3.7027,3.705,3.7115,3.713,3.723,3.7117,3.7213,3.7217,3.7203,3.743,3.7466,3.7638,3.7355,3.7359,3.7362,0,3.671,3.6764,3.6923,3.696,3.699,3.7063,3.7126,3.7188,3.7232,3.7234,3.7278,3.7255,3.735,3.7268,3.7399,3.7323,3.7362,3.7375,3.7381,3.7391,3.7299,3.7446,3.7692,3.7718,3.7399,3.7396,3.7393,0,3.6866,3.6978,3.7088,3.7114,3.7159,3.7212,3.7234,3.7272,3.7315,3.7371,3.7399,3.7465,3.7502,3.7555,3.7551,3.7492,3.7685,3.7603,3.7691,3.7692,3.7734,3.7732,3.7991,3.7759,3.7758,3.7758,3.7757,0,3.7064,3.7163,3.7158,3.7226,3.7336,3.7321,3.7431,3.7447,3.7482,3.7553,3.7518,3.7585,3.7575,3.7644,3.7642,3.7752,3.7769,3.7774,3.7773,3.7778,3.7777,3.7803,3.7792,3.7765,3.7763,3.7762,3.7761,0,3.7257,3.7257,3.7374,3.7407,3.7418,3.7498,3.7527,3.7592,3.7598,3.7689,3.7709,3.772,3.7799,3.78,3.7891,3.7889,3.8024,3.8009,3.8009,3.8006,3.8095,3.8087,3.8381,3.8419,3.8161,3.8163,3.8165,0,3.7384,3.7459,3.75,3.7544,3.7569,3.7641,3.7684,3.7673,3.772,3.7775,3.7834,3.7909,3.7969,3.8097,3.8114,3.8184,3.817,3.8269,3.8181,3.8184,3.8173,3.8169,3.8177,3.8286,3.8289,3.8291,3.8293,0,3.761,3.7606,3.7669,3.7733,3.7785,3.7835,3.7881,3.792,3.7913,3.7968,3.8047,3.8094,3.8186,3.8262,3.8329,3.8353,3.8324,3.8321,3.8345,3.8351,3.8349,3.8352,3.8056,3.8314,3.8312,3.831,3.8309,3.8309,3.7774,3.7839,3.7878,3.7949,3.7983,3.8027,3.8089,3.8103,3.8169,3.8242,3.8231,3.832,3.8363,3.845,3.848,3.8551,3.8517,3.8552,3.8561,3.857,3.858,3.8337,3.8563,3.8562,3.8562,3.8561,3.8561,0,3.7999,3.8021,3.8087,3.8152,3.8209,3.8174,3.8223,3.8274,3.8352,3.8394,3.8453,3.8545,3.8619,3.8642,3.8713,3.8765,3.8754,3.8785,3.8781,3.8787,3.8606,3.8578,3.8793,3.8793,3.8793,3.8793,3.8793,3.8793,3.8122,3.823,3.8231,3.8356,3.8378,3.8464,3.8496,3.8537,3.857,3.8674,3.8734,3.8748,3.8783,3.8857,3.8923,3.8928,3.8956,3.8994,3.8993,3.8823,3.88,3.8778,3.8751,3.9,3.9,3.9169,3.917,3.9172]},{"header":{"parameterUnit":"m.s-1","parameterCategory":1,"la1":30.2991,"la2":30.254,"lo1":-89.0895,"lo2":-89.0444,"dy":0.0017,"dx":0.0017,"nx":28,"ny":28,"refTime":"2024-08-07T09:00:00:Z","depth":0,"parameterNumber":3,"parameterNumberName":"V-component_of_WINDS"},"data":[0,0,0,0,0,0,0,0,0,0,0,0,0,0,0,0,0,0,0,0,0,0,0,0,0,0,0,0,0,0,0,0,0,0,0,0,0,0,0,0,0,0,0,0,0,0,0,0,0,0,0,0,0,0,0,0,0,0,-1.3256,-1.3256,0,-1.329,-1.329,-1.3291,-1.3311,-1.3311,-1.3311,-1.3311,-1.3346,-1.3347,-1.3348,0,0,0,0,0,0,0,0,0,0,0,0,0,-1.3208,-1.3209,-1.3256,-1.3256,-1.3257,-1.329,-1.329,-1.3291,-1.331,-1.3311,-1.3311,-1.3311,-1.3346,-1.3347,-1.3348,0,0,0,0,0,0,0,0,0,0,0,0,0,-1.3234,-1.3209,-1.3256,-1.327,-1.3272,-1.329,-1.329,-1.3291,-1.331,-1.3311,-1.3311,-1.3311,-1.3346,-1.3347,-1.3348,-1.3354,0,0,-1.3352,-1.3353,0,0,0,0,0,0,0,0,-1.3233,-1.3236,-1.3268,-1.3269,-1.3271,-1.3296,-1.3287,-1.3312,-1.331,-1.3296,-1.3311,-1.3311,-1.333,-1.3332,-1.3338,-1.3356,-1.3357,-1.3352,-1.3353,-1.3354,-1.3354,0,0,0,0,0,0,0,-1.3231,-1.3235,-1.3269,-1.3268,-1.327,-1.3276,-1.3279,-1.3292,-1.3312,-1.3297,-1.3299,-1.3302,-1.333,-1.3337,-1.3339,-1.3358,-1.3352,-1.3353,-1.3354,-1.3355,-1.3382,-1.3382,0,0,0,0,0,0,-1.3227,-1.3233,-1.3268,-1.327,-1.3252,-1.3276,-1.3281,-1.3288,-1.3312,-1.3315,-1.3302,-1.3303,-1.3335,-1.3338,-1.3341,-1.3349,-1.3354,-1.3355,-1.3356,-1.3382,-1.3382,-1.3382,0,0,0,0,0,0,-1.3226,-1.323,-1.3267,-1.3252,-1.3257,-1.3277,-1.3285,-1.3289,-1.3295,-1.3315,-1.3319,-1.3305,-1.3335,-1.3339,-1.3351,-1.335,-1.3356,-1.3357,-1.3382,-1.3382,-1.3382,-1.3366,0,0,0,0,0,0,-1.3224,-1.3229,-1.3231,-1.3252,-1.3258,-1.3276,-1.3285,-1.3289,-1.3297,-1.3299,-1.3319,-1.3323,-1.3335,-1.3348,-1.3352,-1.3352,-1.3358,-1.3382,-1.3382,-1.3382,-1.3366,-1.3365,-1.3364,0,0,0,0,0,-1.3222,-1.3226,-1.3231,-1.3236,-1.3261,-1.3276,-1.3279,-1.3294,-1.3297,-1.33,-1.3313,-1.3322,-1.335,-1.3349,-1.3353,-1.3354,-1.3382,-1.3382,-1.3382,-1.3367,-1.3365,-1.3364,0,0,0,0,0,0,-1.3205,-1.3229,-1.3235,-1.3245,-1.3258,-1.3279,-1.3283,-1.3292,-1.3304,-1.3305,-1.3322,-1.3327,-1.3337,-1.3347,-1.3346,-1.3361,-1.3367,-1.3368,-1.3354,-1.3353,-1.3352,-1.3349,-1.3359,0,0,0,0,0,-1.3202,-1.3212,-1.3232,-1.3239,-1.3245,-1.3263,-1.327,-1.328,-1.3294,-1.33,-1.3314,-1.3327,-1.3339,-1.3347,-1.3359,-1.3368,-1.3373,-1.337,-1.3369,-1.3368,-1.3368,-1.3374,-1.3373,-1.3381,-1.3381,-1.3381,0,0,-1.3197,-1.3211,-1.3216,-1.3236,-1.3247,-1.3257,-1.3267,-1.3277,-1.3285,-1.3301,-1.3313,-1.3324,-1.334,-1.3351,-1.3356,-1.3359,-1.3367,-1.3368,-1.3367,-1.3368,-1.3374,-1.3373,-1.3372,-1.3381,-1.3381,-1.3381,0,0,-1.3191,-1.3203,-1.321,-1.3221,-1.3238,-1.325,-1.3251,-1.3271,-1.3279,-1.3291,-1.3303,-1.3313,-1.3333,-1.3344,-1.3352,-1.3351,-1.336,-1.3355,-1.3349,-1.3354,-1.3353,-1.3353,-1.3352,-1.3352,-1.3355,-1.3355,-1.3355,0,-1.3183,-1.3198,-1.3213,-1.3222,-1.323,-1.3246,-1.3253,-1.3263,-1.3283,-1.3288,-1.3292,-1.3317,-1.333,-1.3343,-1.3342,-1.3349,-1.3351,-1.3352,-1.3352,-1.3352,-1.3351,-1.3351,-1.3351,-1.3354,-1.3354,-1.3354,-1.3354,0,-1.3186,-1.3196,-1.32,-1.3218,-1.3227,-1.3235,-1.3252,-1.3259,-1.3268,-1.3279,-1.3292,-1.3307,-1.3322,-1.3326,-1.3335,-1.334,-1.3342,-1.3348,-1.3355,-1.3349,-1.335,-1.335,-1.3353,-1.3353,-1.3354,-1.3354,0,0,-1.3171,-1.3197,-1.3198,-1.3207,-1.3227,-1.3235,-1.3244,-1.3259,-1.3264,-1.3278,-1.3286,-1.3302,-1.3308,-1.3318,-1.3328,-1.3333,-1.3331,-1.3339,-1.334,-1.3337,-1.3338,-1.3332,-1.3332,-1.3337,-1.3337,-1.3337,-1.3336,0,-1.3168,-1.3184,-1.3198,-1.321,-1.3219,-1.3234,-1.3242,-1.3255,-1.3265,-1.3275,-1.3288,-1.3299,-1.3306,-1.3312,-1.3317,-1.333,-1.3331,-1.3331,-1.3345,-1.3345,-1.334,-1.3332,-1.3327,-1.3325,-1.3336,-1.3336,-1.3336,0,-1.3168,-1.318,-1.3192,-1.3211,-1.3215,-1.3222,-1.3236,-1.3246,-1.3261,-1.3269,-1.3279,-1.329,-1.33,-1.3305,-1.332,-1.3319,-1.3326,-1.3333,-1.3333,-1.3335,-1.334,-1.3333,-1.3325,-1.3324,-1.3337,-1.3337,-1.3337,0,-1.3155,-1.3175,-1.3184,-1.3191,-1.3213,-1.3218,-1.3227,-1.3242,-1.325,-1.3263,-1.3269,-1.3283,-1.329,-1.3301,-1.3315,-1.3318,-1.3328,-1.3335,-1.3335,-1.3334,-1.3336,-1.3336,-1.3328,-1.3341,-1.3341,-1.3341,-1.3341,0,-1.315,-1.3157,-1.3179,-1.3185,-1.3193,-1.3209,-1.3217,-1.3227,-1.3241,-1.3249,-1.3263,-1.3271,-1.3289,-1.33,-1.3311,-1.3321,-1.3325,-1.3331,-1.3334,-1.333,-1.3329,-1.3334,-1.3334,-1.3341,-1.3341,-1.3341,-1.3341,0,-1.3137,-1.3152,-1.3164,-1.3184,-1.3189,-1.3194,-1.3211,-1.3217,-1.3229,-1.324,-1.3243,-1.3261,-1.3274,-1.3289,-1.3307,-1.3315,-1.3324,-1.3328,-1.3318,-1.332,-1.3319,-1.3319,-1.3315,-1.3315,-1.3327,-1.3327,-1.3327,0,-1.3133,-1.3139,-1.3159,-1.3166,-1.3175,-1.3185,-1.3193,-1.3209,-1.3217,-1.3235,-1.3239,-1.3253,-1.3264,-1.3284,-1.3299,-1.3312,-1.3317,-1.3315,-1.3319,-1.3315,-1.3317,-1.3316,-1.3317,-1.3313,-1.3313,-1.3313,-1.3313,0,-1.3125,-1.3132,-1.3143,-1.3156,-1.3165,-1.3177,-1.3189,-1.3194,-1.3212,-1.3221,-1.3233,-1.3242,-1.326,-1.3274,-1.3289,-1.3299,-1.3309,-1.3311,-1.3312,-1.3307,-1.3301,-1.3304,-1.3315,-1.3311,-1.3311,-1.3312,-1.3312,-1.3312,-1.3116,-1.3122,-1.3137,-1.3148,-1.3159,-1.317,-1.3177,-1.3189,-1.32,-1.3216,-1.3225,-1.3237,-1.3253,-1.3274,-1.3284,-1.3294,-1.3298,-1.3299,-1.3299,-1.3299,-1.3298,-1.33,-1.3297,-1.3297,-1.3297,-1.3297,-1.3298,0,-1.3108,-1.3118,-1.3129,-1.3145,-1.3154,-1.3163,-1.3177,-1.3184,-1.3195,-1.3208,-1.3219,-1.3234,-1.3247,-1.3263,-1.3277,-1.3282,-1.3287,-1.3285,-1.3285,-1.3287,-1.3294,-1.3292,-1.3281,-1.3281,-1.3281,-1.3281,-1.3281,-1.3281,-1.3105,-1.3114,-1.3123,-1.3138,-1.3149,-1.3161,-1.3168,-1.3178,-1.3189,-1.3204,-1.3215,-1.3225,-1.324,-1.3255,-1.3267,-1.3272,-1.3276,-1.3273,-1.3279,-1.3285,-1.3286,-1.3288,-1.3286,-1.3274,-1.3274,-1.3271,-1.3271,-1.3271]}]]